Mason, MI

1:21 AM EDT on August 26, 2016 (GMT -0400)
Mason Jewett

Weather History for KTEW - April, 2013

Change the Weather History Date:

Monday, April 29, 2013

  Actual Average (KLAN) Record (KLAN)
Temperature  
Mean Temperature 62 °F 52 °F  
Max Temperature 71 °F 63 °F 86 °F (1899)
Min Temperature 52 °F 41 °F 22 °F (1908)
Degree Days  
Heating Degree Days 4 13  
Month to date heating degree days 521  
Since 1 July heating degree days 6385  
Cooling Degree Days 0 0  
Month to date cooling degree days 0  
Year to date cooling degree days 1  
Growing Degree Days 12 (Base 50)    
Moisture  
Dew Point 52 °F    
Average Humidity 73    
Maximum Humidity 95    
Minimum Humidity 43    
Precipitation  
Precipitation 0.00 in 0.10 in 1.75 in (1909)
Month to date precipitation 2.93  
Year to date precipitation 8.11  
Snow  
Snow 0.00 in 0.00 in 4.00 in (1909)
Month to date snowfall 1.9  
Since 1 July snowfall 51.1  
Snow Depth -    
Sea Level Pressure  
Sea Level Pressure 29.89 in    
Wind  
Wind Speed 2 mph (SW)    
Max Wind Speed 8 mph    
Max Gust Speed -    
Visibility 7 miles    
Events Fog , Rain    
T = Trace of Precipitation, MM = Missing Value Source: NWS Daily Summary

Daily Weather History Graph

Daily Weather History Graph

Search for Another Location

Airport or City:

Trip Planner

Search our weather history database for the weather conditions in past years. The results will help you decide how hot, cold, wet, or windy it might be!

Date:

Astronomy

Apr. 29, 2013 Rise Set
Actual Time 6:34 AM EDT 8:35 PM EDT
Civil Twilight 6:04 AM EDT 9:06 PM EDT
Nautical Twilight 5:26 AM EDT 9:44 PM EDT
Astronomical Twilight 4:46 AM EDT 10:25 PM EDT
Moon 12:06 AM EDT (4/29) 9:52 AM EDT (4/29)
Length of Visible Light 15h 02m
Length of Day
14h 00m
Waning Gibbous, 80% of the Moon is Illuminated
Apr 29
Waning Gibbous
May 2
Last Quarter
May 9
New
May 18
First Quarter
May 25
Full

Hourly Weather History & Observations

Time (EDT) Temp. Dew Point Humidity Pressure Visibility Wind Dir Wind Speed Gust Speed Precip Events Conditions
12:16 AM 53.8 °F 52.2 °F 94% 29.85 in 0.5 mi Calm Calm - N/A Fog Fog
12:37 AM 53.8 °F 52.2 °F 94% 29.84 in 0.5 mi Calm Calm - N/A Fog Fog
12:56 AM 53.8 °F 52.2 °F 94% 29.85 in 0.5 mi WNW 4.6 mph - N/A Fog Fog
1:16 AM 53.6 °F 52.0 °F 94% 29.86 in 0.5 mi WNW 3.5 mph - N/A Fog Fog
1:35 AM 53.6 °F 52.2 °F 95% 29.86 in 0.5 mi Calm Calm - N/A Fog Fog
1:56 AM 53.6 °F 52.0 °F 94% 29.86 in 0.5 mi Calm Calm - N/A Fog Fog
2:16 AM 53.6 °F 52.0 °F 94% 29.85 in 1.5 mi Calm Calm - N/A   Overcast
2:35 AM 53.6 °F 52.0 °F 94% 29.86 in 4.0 mi Calm Calm - N/A   Overcast
2:56 AM 53.4 °F 51.8 °F 94% 29.86 in 2.5 mi West 3.5 mph - N/A   Overcast
3:16 AM 53.2 °F 51.8 °F 95% 29.86 in 3.0 mi Calm Calm - N/A   Overcast
3:36 AM 53.1 °F 51.8 °F 95% 29.86 in 2.5 mi Calm Calm - N/A   Overcast
3:56 AM 53.1 °F 51.8 °F 95% 29.86 in 3.0 mi Calm Calm - N/A   Overcast
4:16 AM 53.2 °F 51.8 °F 95% 29.87 in 3.0 mi Calm Calm - N/A   Overcast
4:36 AM 53.2 °F 51.8 °F 95% 29.87 in 3.0 mi Calm Calm - N/A   Overcast
4:56 AM 53.1 °F 51.8 °F 95% 29.87 in 3.0 mi Calm Calm - N/A   Overcast
5:13 AM 53.2 °F 51.8 °F 95% 29.87 in 3.0 mi Calm Calm - N/A   Overcast
5:36 AM 52.9 °F 51.3 °F 94% 29.88 in 3.0 mi Calm Calm - N/A   Overcast
5:56 AM 52.7 °F 51.1 °F 94% 29.88 in 2.5 mi Calm Calm - N/A   Overcast
6:16 AM 52.7 °F 51.1 °F 94% 29.89 in 3.0 mi Calm Calm - N/A   Overcast
6:36 AM 52.7 °F 51.1 °F 94% 29.89 in 2.5 mi Calm Calm - N/A   Overcast
6:56 AM 52.5 °F 50.9 °F 94% 29.89 in 1.0 mi Calm Calm - N/A   Overcast
7:16 AM 52.9 °F 51.4 °F 95% 29.90 in 1.8 mi Calm Calm - N/A   Overcast
7:36 AM 53.1 °F 51.8 °F 95% 29.91 in 2.0 mi Calm Calm - N/A   Overcast
7:56 AM 53.6 °F 51.8 °F 94% 29.91 in 2.0 mi Calm Calm - N/A   Overcast
8:16 AM 53.8 °F 52.2 °F 94% 29.91 in 2.5 mi Calm Calm - N/A   Overcast
8:36 AM 54.3 °F 52.7 °F 94% 29.93 in 3.0 mi WSW 3.5 mph - N/A   Overcast
8:56 AM 55.4 °F 53.6 °F 94% 29.93 in 4.0 mi West 3.5 mph - N/A   Overcast
9:16 AM 55.8 °F 53.2 °F 91% 29.93 in 5.0 mi West 3.5 mph - N/A   Overcast
9:36 AM 57.6 °F 54.1 °F 88% 29.93 in 7.0 mi Calm Calm - N/A   Mostly Cloudy
9:56 AM 58.5 °F 52.9 °F 82% 29.93 in 10.0 mi Calm Calm - N/A   Overcast
10:16 AM 59.0 °F 52.3 °F 79% 29.93 in 10.0 mi West 4.6 mph - N/A   Overcast
10:37 AM 59.5 °F 53.1 °F 79% 29.93 in 10.0 mi SW 5.8 mph - N/A   Overcast
10:56 AM 61.0 °F 52.5 °F 74% 29.93 in 10.0 mi West 3.5 mph - N/A   Mostly Cloudy
11:16 AM 61.5 °F 52.5 °F 72% 29.92 in 10.0 mi Calm Calm - N/A   Scattered Clouds
11:36 AM 63.0 °F 52.5 °F 69% 29.93 in 10.0 mi Calm Calm - N/A   Scattered Clouds
11:56 AM 63.7 °F 52.7 °F 67% 29.92 in 10.0 mi Calm Calm - N/A   Scattered Clouds
12:16 PM 64.4 °F 52.7 °F 66% 29.92 in 10.0 mi West 4.6 mph - N/A   Mostly Cloudy
12:36 PM 65.1 °F 52.5 °F 64% 29.92 in 10.0 mi Calm Calm - N/A   Mostly Cloudy
12:56 PM 66.4 °F 53.4 °F 63% 29.91 in 10.0 mi SW 4.6 mph - N/A   Overcast
1:16 PM 67.1 °F 53.1 °F 61% 29.91 in 10.0 mi SW 3.5 mph - N/A   Overcast
1:36 PM 67.1 °F 52.0 °F 58% 29.91 in 10.0 mi Calm Calm - N/A   Scattered Clouds
1:56 PM 66.6 °F 50.9 °F 57% 29.90 in 10.0 mi Calm Calm - N/A   Scattered Clouds
2:17 PM 68.5 °F 50.7 °F 53% 29.90 in 10.0 mi Calm Calm - N/A   Scattered Clouds
2:36 PM 68.5 °F 51.3 °F 54% 29.90 in 10.0 mi SW 4.6 mph - N/A   Mostly Cloudy
2:56 PM 68.9 °F 51.4 °F 54% 29.90 in 10.0 mi SSW 3.5 mph - N/A   Mostly Cloudy
3:17 PM 69.3 °F 50.9 °F 52% 29.90 in 10.0 mi SW 3.5 mph - N/A   Mostly Cloudy
3:36 PM 70.7 °F 50.2 °F 48% 29.90 in 10.0 mi SW 3.5 mph - N/A   Mostly Cloudy
3:56 PM 70.0 °F 49.1 °F 47% 29.89 in 10.0 mi SSW 4.6 mph - N/A   Mostly Cloudy
4:16 PM 71.2 °F 50.0 °F 47% 29.88 in 10.0 mi SSW 4.6 mph - N/A   Mostly Cloudy
4:36 PM 70.2 °F 49.8 °F 48% 29.88 in 10.0 mi South 6.9 mph - N/A   Mostly Cloudy
4:56 PM 70.2 °F 49.6 °F 48% 29.87 in 10.0 mi SSW 3.5 mph - N/A   Mostly Cloudy
5:16 PM 70.9 °F 49.3 °F 46% 29.87 in 10.0 mi South 4.6 mph - N/A   Mostly Cloudy
5:36 PM 71.1 °F 48.6 °F 45% 29.88 in 10.0 mi Calm Calm - N/A   Mostly Cloudy
5:56 PM 70.9 °F 47.8 °F 44% 29.87 in 10.0 mi SW 6.9 mph - N/A   Scattered Clouds
6:16 PM 70.9 °F 48.7 °F 45% 29.88 in 10.0 mi South 4.6 mph - N/A   Scattered Clouds
6:36 PM 70.7 °F 47.3 °F 43% 29.88 in 10.0 mi SW 8.1 mph - N/A   Scattered Clouds
6:57 PM 70.3 °F 48.0 °F 45% 29.89 in 10.0 mi WSW 8.1 mph - N/A   Scattered Clouds
7:16 PM 69.8 °F 48.4 °F 46% 29.89 in 10.0 mi SW 4.6 mph - N/A   Clear
7:36 PM 68.7 °F 48.6 °F 49% 29.89 in 10.0 mi SSW 4.6 mph - N/A   Clear
7:57 PM 67.8 °F 50.4 °F 54% 29.88 in 10.0 mi Calm Calm - N/A   Clear
8:16 PM 66.4 °F 51.3 °F 58% 29.88 in 10.0 mi Calm Calm - N/A   Clear
8:36 PM 65.5 °F 51.4 °F 60% 29.89 in 10.0 mi Calm Calm - N/A   Scattered Clouds
8:57 PM 64.4 °F 52.9 °F 66% 29.88 in 10.0 mi Calm Calm - N/A   Mostly Cloudy
9:16 PM 64.9 °F 52.0 °F 63% 29.89 in 10.0 mi Calm Calm - N/A   Overcast
9:36 PM 63.7 °F 52.5 °F 67% 29.90 in 10.0 mi South 3.5 mph - N/A   Overcast
9:57 PM 64.0 °F 52.7 °F 67% 29.91 in 10.0 mi South 3.5 mph - N/A   Mostly Cloudy
10:16 PM 64.6 °F 52.3 °F 64% 29.91 in 10.0 mi South 5.8 mph - N/A   Scattered Clouds
10:36 PM 63.5 °F 53.1 °F 69% 29.91 in 10.0 mi Calm Calm - N/A   Scattered Clouds
10:57 PM 63.3 °F 52.7 °F 68% 29.91 in 10.0 mi South 3.5 mph - N/A Rain Light Rain
11:36 PM 62.6 °F 53.1 °F 71% 29.91 in 10.0 mi South 3.5 mph - N/A   Mostly Cloudy
11:57 PM 61.7 °F 53.2 °F 74% 29.91 in 10.0 mi South 3.5 mph - N/A   Overcast